N6GPM Weather Reports


time (UTC)temp
C
wind
direction
speed
KPH
gust
KPH
rain 1hr
cm
rain 24hr
cm
rain mn
cm
humidity
%
barometer
mb
20260507080204 14 285 0.0 0.0 0.00 0.00 0.00 78 1020.6
20260507075700 14 283 0.0 0.0 0.00 0.00 0.00 78 1020.7
20260507075156 14 277 0.0 0.0 0.00 0.00 0.00 78 1020.7
20260507074652 14 281 0.0 0.0 0.00 0.00 0.00 78 1020.8
20260507074151 14 303 0.0 0.0 0.00 0.00 0.00 78 1020.8
20260507073647 14 301 0.0 0.0 0.00 0.00 0.00 78 1020.8
20260507073143 14 299 0.0 0.0 0.00 0.00 0.00 77 1020.8
20260507072642 14 297 0.0 0.0 0.00 0.00 0.00 77 1021.2
20260507072138 14 291 0.0 0.0 0.00 0.00 0.00 77 1020.9
20260507071636 14 291 0.0 0.0 0.00 0.00 0.00 77 1021.1
20260507071132 14 274 0.0 0.0 0.00 0.00 0.00 77 1021.1
20260507070629 14 275 0.0 0.0 0.00 0.00 0.00 77 1021.2
20260507070126 14 275 0.0 0.0 0.00 0.00 0.00 77 1020.9
20260507065622 14 275 0.0 0.0 0.00 0.00 0.00 77 1021.2
20260507065119 15 274 0.0 0.0 0.00 0.00 0.00 76 1021.3
20260507064617 15 274 0.0 1.6 0.00 0.00 0.00 76 1021.3
20260507064116 15 292 3.2 4.8 0.00 0.00 0.00 76 1021.2
20260507063613 15 303 0.0 0.0 0.00 0.00 0.00 76 1021.3
20260507063110 15 310 8.0 9.7 0.00 0.00 0.00 76 1021.3
20260507062606 15 312 3.2 4.8 0.00 0.00 0.00 76 1021.4
20260507062104 15 327 3.2 4.8 0.00 0.00 0.00 76 1021.3
20260507061601 15 302 1.6 3.2 0.00 0.00 0.00 76 1021.1
20260507061100 15 308 0.0 0.0 0.00 0.00 0.00 76 1021.2
20260507060557 15 302 6.4 9.7 0.00 0.00 0.00 76 1021.2
20260507060053 15 329 3.2 3.2 0.00 0.00 0.00 76 1021.2
20260507055548 15 309 0.0 0.0 0.00 0.00 0.00 76 1021.2
20260507055045 15 302 0.0 0.0 0.00 0.00 0.00 76 1021.1
20260507054541 15 317 0.0 0.0 0.00 0.00 0.00 76 1021.4
20260507054038 15 320 0.0 0.0 0.00 0.00 0.00 76 1021.3
20260507053536 15 311 0.0 0.0 0.00 0.00 0.00 75 1021.1
20260507053035 15 313 0.0 0.0 0.00 0.00 0.00 75 1021.2
20260507052532 15 311 0.0 0.0 0.00 0.00 0.00 75 1021.2
20260507052028 15 321 0.0 0.0 0.00 0.00 0.00 75 1021.3
20260507051527 15 319 0.0 0.0 0.00 0.00 0.00 74 1021.3
20260507051023 15 329 0.0 0.0 0.00 0.00 0.00 74 1021.2
20260507050519 15 298 0.0 0.0 0.00 0.00 0.00 74 1021.2
20260507050016 15 308 0.0 0.0 0.00 0.00 0.00 73 1021.2
20260507045513 16 303 0.0 0.0 0.00 0.00 0.00 73 1021.3
20260507045010 16 305 3.2 4.8 0.00 0.00 0.00 73 1021.3
20260507044506 16 283 8.0 9.7 0.00 0.00 0.00 72 1021.3
20260507044003 16 296 0.0 0.0 0.00 0.00 0.00 72 1021.1
20260507043459 16 293 6.4 8.0 0.00 0.00 0.00 72 1020.9
20260507042955 16 302 6.4 8.0 0.00 0.00 0.00 71 1020.9
20260507042453 16 270 4.8 4.8 0.00 0.00 0.00 71 1020.9
20260507041948 16 275 6.4 9.7 0.00 0.00 0.00 71 1020.8
20260507041445 16 270 4.8 9.7 0.00 0.00 0.00 70 1020.8
20260507040942 16 288 9.7 12.9 0.00 0.00 0.00 70 1020.8
20260507040438 16 293 6.4 9.7 0.00 0.00 0.00 70 1020.4
20260507035934 17 280 9.7 11.3 0.00 0.00 0.00 69 1020.8
20260507035431 17 275 8.0 9.7 0.00 0.00 0.00 69 1020.5
20260507034927 17 304 8.0 9.7 0.00 0.00 0.00 68 1020.4
20260507034424 17 291 8.0 12.9 0.00 0.00 0.00 68 1020.3
20260507033922 17 307 11.3 12.9 0.00 0.00 0.00 68 1020.6
20260507033420 17 297 9.7 11.3 0.00 0.00 0.00 67 1020.1
20260507032917 17 286 6.4 9.7 0.00 0.00 0.00 67 1020.2
20260507032414 17 302 6.4 8.0 0.00 0.00 0.00 66 1020.2
20260507031909 17 300 9.7 12.9 0.00 0.00 0.00 66 1020.3
20260507031406 17 274 14.5 17.7 0.00 0.00 0.00 65 1020.1
20260507030903 18 294 9.7 12.9 0.00 0.00 0.00 65 1020.3
20260507030400 18 311 6.4 9.7 0.00 0.00 0.00 65 1020.5
20260507025857 18 290 8.0 11.3 0.00 0.00 0.00 64 1020.0
20260507025355 18 287 6.4 8.0 0.00 0.00 0.00 63 1020.0
20260507024852 18 324 6.4 9.7 0.00 0.00 0.00 63 1019.8
20260507024350 18 292 8.0 11.3 0.00 0.00 0.00 62 1019.9
20260507023845 18 285 11.3 17.7 0.00 0.00 0.00 62 1019.8
20260507023342 19 288 8.0 11.3 0.00 0.00 0.00 62 1020.0
20260507022840 19 297 14.5 17.7 0.00 0.00 0.00 61 1019.6
20260507022336 19 289 8.0 11.3 0.00 0.00 0.00 61 1019.6
20260507021832 20 318 17.7 22.5 0.00 0.00 0.00 60 1019.9
20260507021327 20 283 12.9 17.7 0.00 0.00 0.00 60 1019.6
20260507020825 20 290 16.1 25.7 0.00 0.00 0.00 59 1019.6
20260507020322 20 316 9.7 16.1 0.00 0.00 0.00 59 1019.3
20260507015819 20 276 14.5 16.1 0.00 0.00 0.00 58 1019.4
20260507015317 20 275 8.0 11.3 0.00 0.00 0.00 58 1019.5
20260507014814 21 293 16.1 20.9 0.00 0.00 0.00 56 1019.4
20260507014310 21 282 6.4 9.7 0.00 0.00 0.00 56 1019.4
20260507013806 21 300 6.4 14.5 0.00 0.00 0.00 55 1019.3
20260507013304 21 306 9.7 14.5 0.00 0.00 0.00 55 1019.3
20260507012801 21 275 12.9 14.5 0.00 0.00 0.00 54 1019.2
20260507012257 21 294 9.7 14.5 0.00 0.00 0.00 53 1019.5
20260507011754 21 280 14.5 20.9 0.00 0.00 0.00 54 1018.9
20260507011251 22 254 9.7 14.5 0.00 0.00 0.00 53 1019.4
20260507010750 22 330 6.4 9.7 0.00 0.00 0.00 53 1019.2
20260507010247 22 323 8.0 11.3 0.00 0.00 0.00 52 1019.2
20260507005744 22 247 8.0 12.9 0.00 0.00 0.00 52 1019.0
20260507005241 22 297 12.9 16.1 0.00 0.00 0.00 52 1019.0
20260507004737 22 297 12.9 16.1 0.00 0.00 0.00 52 1018.9
20260507004235 22 277 12.9 17.7 0.00 0.00 0.00 51 1018.9
20260507003731 22 309 9.7 14.5 0.00 0.00 0.00 51 1018.9
20260507003226 22 286 9.7 14.5 0.00 0.00 0.00 50 1019.0
20260507002722 22 280 8.0 9.7 0.00 0.00 0.00 51 1019.2
20260507002219 22 325 9.7 16.1 0.00 0.00 0.00 50 1018.9
20260507001716 22 299 8.0 11.3 0.00 0.00 0.00 50 1018.6
20260507001213 23 272 12.9 16.1 0.00 0.00 0.00 50 1018.6
20260507000709 23 314 8.0 14.5 0.00 0.00 0.00 50 1018.5
20260507000205 23 279 17.7 20.9 0.00 0.00 0.00 50 1019.0
20260506235702 23 282 14.5 20.9 0.00 0.00 0.00 48 1018.5
20260506235157 23 308 6.4 9.7 0.00 0.00 0.00 47 1018.5
20260506234654 22 263 14.5 16.1 0.00 0.00 0.00 49 1018.9
20260506234151 23 300 12.9 14.5 0.00 0.00 0.00 50 1018.7
20260506233649 23 332 6.4 8.0 0.00 0.00 0.00 47 1018.4
20260506233145 23 15 11.3 14.5 0.00 0.00 0.00 49 1018.5
20260506232642 23 322 11.3 12.9 0.00 0.00 0.00 48 1018.6
20260506232137 23 303 17.7 20.9 0.00 0.00 0.00 46 1018.8
20260506231634 23 286 0.0 0.0 0.00 0.00 0.00 47 1018.6
20260506231133 23 294 9.7 14.5 0.00 0.00 0.00 47 1018.8
20260506230630 23 301 14.5 17.7 0.00 0.00 0.00 46 1018.8
20260506230126 23 281 8.0 12.9 0.00 0.00 0.00 45 1018.8
20260506225623 23 295 14.5 16.1 0.00 0.00 0.00 47 1019.0
20260506225119 23 299 8.0 11.3 0.00 0.00 0.00 46 1019.0
20260506224616 23 234 3.2 3.2 0.00 0.00 0.00 46 1018.9
20260506224113 23 309 9.7 12.9 0.00 0.00 0.00 46 1018.9
20260506223609 23 286 3.2 4.8 0.00 0.00 0.00 46 1019.0
20260506223105 23 340 6.4 8.0 0.00 0.00 0.00 46 1019.0
20260506222602 23 223 12.9 14.5 0.00 0.00 0.00 45 1018.9
20260506222058 22 279 3.2 4.8 0.00 0.00 0.00 46 1019.0
20260506221556 22 285 11.3 17.7 0.00 0.00 0.00 45 1019.3
20260506221054 22 284 8.0 12.9 0.00 0.00 0.00 45 1019.4
20260506220550 22 240 4.8 9.7 0.00 0.00 0.00 46 1019.3
20260506220045 22 13 11.3 12.9 0.00 0.00 0.00 46 1019.4
20260506215542 22 298 4.8 4.8 0.00 0.00 0.00 44 1019.4
20260506215038 22 292 8.0 12.9 0.00 0.00 0.00 46 1019.4
20260506214535 22 280 0.0 0.0 0.00 0.00 0.00 46 1019.8
20260506214033 22 230 4.8 8.0 0.00 0.00 0.00 46 1019.7
20260506213531 22 347 4.8 8.0 0.00 0.00 0.00 46 1019.7
20260506213027 22 286 9.7 16.1 0.00 0.00 0.00 47 1019.8
20260506212524 21 10 9.7 14.5 0.00 0.00 0.00 48 1019.9
20260506212019 21 307 12.9 14.5 0.00 0.00 0.00 47 1020.1
20260506211515 22 278 11.3 16.1 0.00 0.00 0.00 47 1020.1
20260506211013 21 297 3.2 3.2 0.00 0.00 0.00 47 1020.1
20260506210509 21 300 14.5 16.1 0.00 0.00 0.00 47 1019.9
20260506210006 22 293 0.0 3.2 0.00 0.00 0.00 47 1020.1
20260506205501 21 283 3.2 3.2 0.00 0.00 0.00 47 1020.2
20260506204952 21 293 4.8 4.8 0.00 0.00 0.00 47 1020.3
20260506204450 22 272 0.0 0.0 0.00 0.00 0.00 45 1020.2
20260506203947 22 277 4.8 8.0 0.00 0.00 0.00 47 1020.1
20260506203444 21 229 6.4 12.9 0.00 0.00 0.00 47 1020.2
20260506202941 21 257 8.0 11.3 0.00 0.00 0.00 50 1020.4
20260506202439 21 269 6.4 9.7 0.00 0.00 0.00 49 1020.6
20260506201935 21 264 8.0 9.7 0.00 0.00 0.00 49 1020.3
20260506201433 20 272 6.4 8.0 0.00 0.00 0.00 49 1020.5
20260506200929 20 274 6.4 9.7 0.00 0.00 0.00 49 1020.5
20260506200425 21 268 3.2 4.8 0.00 0.00 0.00 49 1020.7
20260506195922 20 237 11.3 12.9 0.00 0.00 0.00 50 1020.7
20260506195419 21 294 0.0 0.0 0.00 0.00 0.00 50 1020.9
20260506194916 21 264 6.4 8.0 0.00 0.00 0.00 48 1021.2
20260506194413 21 271 6.4 8.0 0.00 0.00 0.00 48 1020.8
20260506193910 21 202 0.0 0.0 0.00 0.00 0.00 49 1020.8
20260506193407 20 261 6.4 8.0 0.00 0.00 0.00 51 1021.2
20260506192903 20 257 0.0 0.0 0.00 0.00 0.00 50 1021.2
20260506192400 20 259 8.0 9.7 0.00 0.00 0.00 53 1020.9
20260506191857 20 229 0.0 3.2 0.00 0.00 0.00 52 1021.2
20260506191353 19 239 8.0 9.7 0.00 0.00 0.00 53 1021.1
20260506190850 20 241 11.3 12.9 0.00 0.00 0.00 53 1021.2
20260506190346 20 239 6.4 8.0 0.00 0.00 0.00 53 1021.5
20260506185843 20 304 0.0 0.0 0.00 0.00 0.00 51 1021.3
20260506185340 20 197 3.2 3.2 0.00 0.00 0.00 53 1021.6
20260506184837 19 297 4.8 9.7 0.00 0.00 0.00 53 1021.7
20260506184335 18 281 0.0 0.0 0.00 0.00 0.00 55 1021.7
20260506183832 19 233 8.0 11.3 0.00 0.00 0.00 54 1021.7
20260506183327 20 317 0.0 0.0 0.00 0.00 0.00 55 1021.5
20260506182825 19 260 0.0 0.0 0.00 0.00 0.00 56 1021.7
20260506182321 18 278 1.6 3.2 0.00 0.00 0.00 55 1021.9
20260506181819 18 328 4.8 8.0 0.00 0.00 0.00 57 1021.8
20260506181317 18 296 1.6 3.2 0.00 0.00 0.00 59 1021.8
20260506180814 18 165 3.2 4.8 0.00 0.00 0.00 57 1021.6
20260506180310 17 333 1.6 3.2 0.00 0.00 0.00 60 1021.7
20260506175806 18 303 4.8 9.7 0.00 0.00 0.00 59 1021.7
20260506175306 18 299 0.0 0.0 0.00 0.00 0.00 57 1021.7
20260506174801 18 278 0.0 0.0 0.00 0.00 0.00 59 1021.7
20260506174258 17 219 1.6 3.2 0.00 0.00 0.00 61 1021.8
20260506173755 16 283 3.2 4.8 0.00 0.00 0.00 62 1021.9
20260506173252 16 348 4.8 4.8 0.00 0.00 0.00 62 1021.7
20260506172749 16 308 3.2 3.2 0.00 0.00 0.00 63 1021.7
20260506172245 17 306 0.0 0.0 0.00 0.00 0.00 62 1022.1
20260506171743 17 264 0.0 0.0 0.00 0.00 0.00 61 1021.9
20260506171240 17 163 0.0 1.6 0.00 0.00 0.00 61 1022.0
20260506170738 16 212 1.6 4.8 0.00 0.00 0.00 62 1022.0
20260506170234 16 234 0.0 1.6 0.00 0.00 0.00 64 1021.9
20260506165733 15 255 4.8 4.8 0.00 0.00 0.00 65 1022.0
20260506165229 15 241 4.8 4.8 0.00 0.00 0.00 65 1021.8
20260506164726 16 225 6.4 8.0 0.00 0.00 0.00 65 1022.0
20260506164223 15 298 0.0 0.0 0.00 0.00 0.00 65 1022.0
20260506163720 15 301 0.0 0.0 0.00 0.00 0.00 66 1021.9
20260506163215 15 76 0.0 1.6 0.00 0.00 0.00 67 1022.0
20260506162711 14 343 1.6 3.2 0.00 0.00 0.00 69 1021.9
20260506162209 15 332 0.0 0.0 0.00 0.00 0.00 68 1022.0
20260506161706 14 220 0.0 0.0 0.00 0.00 0.00 70 1021.8
20260506161203 14 216 0.0 0.0 0.00 0.00 0.00 69 1021.7
20260506160701 14 211 0.0 0.0 0.00 0.00 0.00 69 1021.8
20260506160157 14 184 0.0 0.0 0.00 0.00 0.00 70 1022.0
20260506155655 13 152 0.0 0.0 0.00 0.00 0.00 71 1021.8
20260506155152 13 175 0.0 0.0 0.00 0.00 0.00 71 1021.8
20260506153254 12 40 1.6 3.2 0.00 0.00 0.00 77 1021.6
20260506152751 12 69 1.6 4.8 0.00 0.00 0.00 77 1021.7
20260506152248 12 78 0.0 1.6 0.00 0.00 0.00 77 1021.7
20260506151747 12 91 0.0 0.0 0.00 0.00 0.00 79 1021.8
20260506151243 12 133 0.0 0.0 0.00 0.00 0.00 79 1021.8
20260506150740 12 131 6.4 8.0 0.00 0.00 0.00 79 1021.8
20260506150237 12 161 0.0 0.0 0.00 0.00 0.00 81 1021.7
20260506145734 12 145 6.4 8.0 0.00 0.00 0.00 80 1021.9
20260506145230 11 169 4.8 4.8 0.00 0.00 0.00 81 1021.6
20260506144728 11 83 1.6 1.6 0.00 0.00 0.00 82 1021.8
20260506144225 11 74 0.0 0.0 0.00 0.00 0.00 83 1021.9
20260506143722 11 128 0.0 0.0 0.00 0.00 0.00 84 1021.6
20260506143220 11 78 0.0 0.0 0.00 0.00 0.00 84 1021.5
20260506142718 11 81 0.0 0.0 0.00 0.00 0.00 84 1021.7
20260506142216 10 78 0.0 0.0 0.00 0.00 0.00 84 1021.7
20260506141714 10 82 0.0 0.0 0.00 0.00 0.00 85 1021.7
20260506141212 10 75 1.6 1.6 0.00 0.00 0.00 85 1021.8
20260506140709 10 74 0.0 0.0 0.00 0.00 0.00 86 1021.8
20260506140206 10 93 1.6 3.2 0.00 0.00 0.00 86 1021.6
20260506135703 10 86 0.0 0.0 0.00 0.00 0.00 87 1021.6
20260506135159 10 105 1.6 1.6 0.00 0.00 0.00 87 1021.5
20260506134656 10 95 0.0 1.6 0.00 0.00 0.00 88 1021.6
20260506134152 9 95 0.0 0.0 0.00 0.00 0.00 88 1021.7
20260506133649 9 126 0.0 0.0 0.00 0.00 0.00 89 1021.3
20260506133146 9 132 0.0 0.0 0.00 0.00 0.00 89 1021.4
20260506132643 9 157 0.0 0.0 0.00 0.00 0.00 89 1021.3
20260506132140 8 157 0.0 0.0 0.00 0.00 0.00 90 1021.2
20260506131638 8 157 0.0 0.0 0.00 0.00 0.00 90 1020.9
20260506131134 8 158 0.0 0.0 0.00 0.00 0.00 90 1021.3
20260506130631 8 158 0.0 0.0 0.00 0.00 0.00 90 1020.9
20260506130128 8 158 0.0 0.0 0.00 0.00 0.00 90 1020.9
20260506125626 8 158 0.0 0.0 0.00 0.00 0.00 90 1020.8
20260506125123 8 158 0.0 0.0 0.00 0.00 0.00 89 1020.8
20260506124621 8 158 0.0 0.0 0.00 0.00 0.00 89 1020.8
20260506124119 8 158 0.0 0.0 0.00 0.00 0.00 89 1020.8
20260506123616 8 159 0.0 0.0 0.00 0.00 0.00 89 1020.8
20260506123115 8 159 0.0 0.0 0.00 0.00 0.00 89 1020.8
20260506122611 8 158 0.0 0.0 0.00 0.00 0.00 89 1020.7
20260506122109 8 158 0.0 0.0 0.00 0.00 0.00 89 1020.8
20260506121607 8 158 0.0 0.0 0.00 0.00 0.00 89 1020.8
20260506121103 8 158 0.0 0.0 0.00 0.00 0.00 89 1021.1
20260506120601 8 158 0.0 0.0 0.00 0.00 0.00 89 1020.7
20260506120058 9 158 0.0 0.0 0.00 0.00 0.00 89 1020.8
20260506115556 9 158 0.0 0.0 0.00 0.00 0.00 88 1020.5
20260506115054 9 158 0.0 0.0 0.00 0.00 0.00 88 1020.6
20260506114551 9 158 0.0 0.0 0.00 0.00 0.00 88 1020.7
20260506114049 9 158 0.0 0.0 0.00 0.00 0.00 88 1020.7
20260506113547 9 159 0.0 0.0 0.00 0.00 0.00 88 1020.9
20260506113044 9 159 0.0 0.0 0.00 0.00 0.00 88 1020.7
20260506112540 9 159 0.0 0.0 0.00 0.00 0.00 88 1020.6
20260506112038 9 159 0.0 0.0 0.00 0.00 0.00 88 1020.7
20260506111536 9 158 0.0 0.0 0.00 0.00 0.00 88 1020.6
20260506111033 9 158 0.0 0.0 0.00 0.00 0.00 88 1020.7
20260506110530 9 158 0.0 0.0 0.00 0.00 0.00 88 1020.4
20260506110027 9 158 0.0 0.0 0.00 0.00 0.00 88 1020.6
20260506105523 9 159 0.0 0.0 0.00 0.00 0.00 88 1020.6
20260506105021 9 159 0.0 0.0 0.00 0.00 0.00 88 1020.6
20260506104519 9 159 0.0 0.0 0.00 0.00 0.00 88 1020.7
20260506104016 9 159 0.0 0.0 0.00 0.00 0.00 88 1020.5
20260506103513 9 158 0.0 0.0 0.00 0.00 0.00 88 1020.6
20260506103010 9 165 0.0 1.6 0.00 0.00 0.00 88 1020.5
20260506102509 9 164 0.0 0.0 0.00 0.00 0.00 88 1020.6
20260506102005 10 164 0.0 0.0 0.00 0.00 0.00 87 1020.5
20260506101502 10 165 0.0 0.0 0.00 0.00 0.00 87 1020.5
20260506100959 10 165 0.0 0.0 0.00 0.00 0.00 87 1020.9
20260506100457 10 165 0.0 0.0 0.00 0.00 0.00 87 1020.6
20260506095955 10 165 0.0 0.0 0.00 0.00 0.00 87 1020.4
20260506095454 10 165 0.0 0.0 0.00 0.00 0.00 87 1020.4
20260506094949 10 165 0.0 0.0 0.00 0.00 0.00 87 1020.5
20260506094448 10 165 0.0 0.0 0.00 0.00 0.00 87 1020.5
20260506093945 10 165 0.0 0.0 0.00 0.00 0.00 87 1020.6
20260506093443 10 165 0.0 0.0 0.00 0.00 0.00 86 1020.4
20260506092940 10 165 0.0 0.0 0.00 0.00 0.00 86 1020.6
20260506092438 10 165 0.0 0.0 0.00 0.00 0.00 86 1020.7
20260506091934 10 165 0.0 0.0 0.00 0.00 0.00 86 1020.7
20260506091433 10 165 0.0 0.0 0.00 0.00 0.00 86 1020.6
20260506090930 10 164 0.0 0.0 0.00 0.00 0.00 85 1020.6
20260506090427 10 164 0.0 0.0 0.00 0.00 0.00 85 1020.9
20260506085924 10 164 0.0 0.0 0.00 0.00 0.00 85 1020.8
20260506085421 10 165 0.0 0.0 0.00 0.00 0.00 85 1020.9
20260506084917 10 168 0.0 0.0 0.00 0.00 0.00 84 1020.9
20260506084414 10 168 0.0 0.0 0.00 0.00 0.00 84 1020.8
20260506083910 10 173 0.0 0.0 0.00 0.00 0.00 84 1021.1
20260506083408 10 178 0.0 0.0 0.00 0.00 0.00 84 1021.3
20260506082905 10 177 0.0 0.0 0.00 0.00 0.00 84 1020.7
20260506082401 10 177 0.0 0.0 0.00 0.00 0.00 84 1020.9
20260506081857 11 177 0.0 0.0 0.00 0.00 0.00 84 1021.1
20260506081356 11 182 0.0 0.0 0.00 0.00 0.00 83 1021.2
20260506080853 11 174 0.0 0.0 0.00 0.00 0.00 82 1021.2
20260506080349 11 155 1.6 1.6 0.00 0.00 0.00 82 1020.7